MPEC 2004-M26 : 2004 MP1

The following Minor Planet Electronic Circular may be linked-to from your own Web pages, but must not otherwise be redistributed electronically.


Read MPEC 2004-M25 Read MPEC 2004-M27


M.P.E.C. 2004-M26                                Issued 2004 June 19, 17:35 UT

     The Minor Planet Electronic Circulars contain information on unusual
         minor planets and routine data on comets.  They are published
   on behalf of Commission 20 of the International Astronomical Union by the
          Minor Planet Center, Smithsonian Astrophysical Observatory,
                          Cambridge, MA 02138, U.S.A.

         Supported in part by the Steven and Michele Kirsch Foundation
             Prepared using the Tamkin Foundation Computer Network

                              MPC@CFA.HARVARD.EDU
          URL http://cfa-www.harvard.edu/iau/mpc.html  ISSN 1523-6714

                                   2004 MP1

Observations:
     K04M01P* C2004 06 17.22477 15 10 17.22 -24 43 58.2          19.0   EM026704
     K04M01P  C2004 06 17.23497 15 10 35.95 -24 42 10.0          19.0   EM026704
     K04M01P  C2004 06 17.25533 15 11 13.30 -24 38 34.4          19.5   EM026704
     K04M01P  C2004 06 17.26552 15 11 32.12 -24 36 45.8          19.4   EM026704
     K04M01P  C2004 06 18.16927 15 39 00.95 -21 55 55.3          19.3   EM026704
     K04M01P  C2004 06 18.17067 15 39 03.20 -21 55 38.7          19.4   EM026704
     K04M01P  C2004 06 18.17910 15 39 16.92 -21 54 09.4          19.9   EM026704
     K04M01P  C2004 06 18.18074 15 39 19.62 -21 53 51.5          19.9   EM026704
     K04M01P  C2004 06 18.19109 15 39 36.41 -21 52 00.1          19.8   EM026704
     K04M01P  C2004 06 18.19126 15 39 36.65 -21 51 57.5          19.4   EM026704
     K04M01P  C2004 06 18.20088 15 39 52.35 -21 50 13.7          19.5   EM026704
     K04M01P  C2004 06 18.20150 15 39 53.28 -21 50 08.3          20.1   EM026704
     K04M01P  C2004 06 18.21109 15 40 08.89 -21 48 24.1          19.6   EM026704
     K04M01P  C2004 06 18.21180 15 40 09.98 -21 48 16.0          19.9   EM026704
     K04M01P 5C2004 06 19.24931 16 07 30.76 -18 43 06.9          18.5 R EM026673
     K04M01P 5C2004 06 19.25069 16 07 32.73 -18 42 51.9                 EM026673
     K04M01P  C2004 06 19.25383 16 07 35.46 -18 42 13.0          19.3 R EM026651
     K04M01P 5C2004 06 19.25405 16 07 37.41 -18 42 16.9                 EM026673
     K04M01P  C2004 06 19.25478 16 07 36.83 -18 42 02.5          19.6 R EM026651
     K04M01P  C2004 06 19.25567 16 07 37.95 -18 41 53.4          19.5 R EM026651
     K04M01P 5C2004 06 19.26001 16 07 45.54 -18 41 14.7                 EM026673
     K04M01P 5C2004 06 19.26412 16 07 51.28 -18 40 31.1                 EM026673
     K04M01P 5C2004 06 19.26950 16 07 58.69 -18 39 35.4                 EM026673

Observer details:
651 Grasslands Observatory, Tucson.  Observer J. E. McGaha.  0.62-m f/5.1
    Newtonian + CCD.
673 Table Mountain Observatory, Wrightwood.  Observer J. Young.  0.6-m
    reflector + CCD.
704 Lincoln Laboratory ETS, New Mexico.  Observers M. Blythe, F. Shelly,
    M. Bezpalko, R. Huber, L. Manguso, D. Torres, R. Kracke, M. McCleary,
    H. Stange, A. Milner.  Measurers J. Stuart, R. Sayer, J. Evans, J. Kommers.
    1.0-m f/2.15 reflector + CCD.

Orbital elements:
2004 MP1
Epoch 2004 July 14.0 TT = JDT 2453200.5                 MPC
M  22.44443              (2000.0)            P               Q
n   0.41259480     Peri.  326.72739     -0.58942851     +0.79363859
a   1.7869821      Node   266.70972     -0.70431327     -0.59624647
e   0.4406900      Incl.    8.68217     -0.39562211     -0.12094601
P   2.39           H   25.1           G   0.15           U   8
Residuals in seconds of arc
040617 704  0.1-  0.5-    040618 704  0.2-  0.1-    040619 651  0.2-  0.2-
040617 704  0.2-  0.3+    040618 704  0.7-  0.6+    040619 673  1.0+  0.2+
040617 704  0.6-  0.1+    040618 704  0.6+  0.7+    040619 651  0.6+  0.3+
040617 704  0.9+  0.2+    040618 704  0.4-  0.6-    040619 651  1.0-  0.0
040618 704  0.3+  0.9-    040618 704  0.7+  0.1-    040619 673  0.7-  0.2-
040618 704  0.1-  0.7+    040618 704  0.1-  0.3+    040619 673  0.1+  0.3+
040618 704  0.2-  0.5-    040619 673  0.2-  0.1-    040619 673  0.3-  0.6-
040618 704  0.2+  0.2-    040619 673  0.6+  0.4+

Ephemeris:
2004 MP1                 a,e,i = 1.79, 0.44, 9                   q = 0.9995
Date    TT    R. A. (2000) Decl.     Delta      r     Elong.  Phase     V
2004 06 14    13 15.50   -31 32.7    0.038    1.037   123.6    54.7    20.1
2004 06 16    14 28.71   -27 58.1    0.037    1.043   137.2    41.4    19.6
2004 06 18    15 34.06   -22 23.4    0.039    1.050   149.4    29.5    19.4
2004 06 20    16 24.75   -16 32.6    0.044    1.057   157.6    21.5    19.5
2004 06 22    17 01.79   -11 33.5    0.050    1.064   161.1    18.0    19.7
2004 06 24    17 28.70   -07 40.6    0.058    1.072   161.1    17.9    20.0
2004 06 26    17 48.60   -04 44.7    0.067    1.080   159.9    18.9    20.4
2004 06 28    18 03.69   -02 32.4    0.077    1.088   158.4    20.1    20.7
2004 06 30    18 15.41   -00 52.3    0.087    1.097   157.1    21.1    21.0
2004 07 02    18 24.72   +00 23.8    0.097    1.106   156.0    21.9    21.3
2004 07 04    18 32.26   +01 22.0    0.108    1.116   155.2    22.5    21.6
2004 07 06    18 38.47   +02 06.2    0.119    1.125   154.6    22.8    21.8
2004 07 08    18 43.67   +02 39.6    0.130    1.135   154.1    23.1    22.0
2004 07 10    18 48.08   +03 04.2    0.142    1.145   153.7    23.2    22.2
2004 07 12    18 51.88   +03 21.8    0.153    1.156   153.3    23.3    22.4
2004 07 14    18 55.20   +03 33.5    0.165    1.166   153.0    23.3    22.6

Kyle E. Smalley              (C) Copyright 2004 MPC           M.P.E.C. 2004-M26

Read MPEC 2004-M25 Read MPEC 2004-M27


Our Web policy. Index to the CBAT/MPC/ICQ pages.

MPC